Location: Bastogne Gables
(35.1554°N, 78.9900°W)
Time: 20:38:30
(UTC+00:00)

AQUARIUS - Pass Details

Date: 28 February 2021
Orbit: 650 x 652 km, 98.0° (Epoch: 16 April)

Event Time Altitude Azimuth Distance (km) Brightness Sun altitude
Rises 10:24:09 0° 37° (NE) 2,975 8.1 -17.6°
Reaches altitude 10° 10:27:35 10° 65° (ENE) 2,058 7.8 -16.9°
Maximum altitude 10:29:39 13° 92° (E) 1,861 7.7 -16.5°
Drops below altitude 10° 10:31:42 10° 120° (ESE) 2,050 7.6 -16.1°
Sets 10:35:06 0° 148° (SSE) 2,954 8.0 -15.4°
